Regional Weather Roundup
Issued by NWS Northern Indiana

Home | Current Version | Previous Version | Graphics & Text | Print | Product List | Glossary On
Versions: 1 2 3 4 5 6 7 8 9 10 11 12 13 14 15 16 17 18 19 20 21 22 23 24 25 26 27 28 29 30 31 32 33 34 35 36 37 38 39 40 41 42 43 44 45 46 47 48 49 50
000
ASUS43 KIWX 011410
RWRIWX

KIWX WEATHER ROUNDUP
NATIONAL WEATHER SERVICE NORTHERN INDIANA
1000 AM EDT MON SEP 01 2014

NOTE: "FAIR" INDICATES FEW OR NO CLOUDS BELOW 12,000 FEET WITH NO
SIGNIFICANT WEATHER AND/OR OBSTRUCTIONS TO VISIBILITY.

* THESE STATIONS ARE NOT UNDER NWS QUALITY CONTROL. THEY ALSO MAY NOT
  REPORT WEATHER SUCH AS PRECIPITATION OR FOG.

INZ001>027-011500-
NORTHERN INDIANA

CITY           SKY/WX    TMP DP  RH WIND       PRES   REMARKS
GARY*          CLOUDY    75  72  88 S14       29.78F FOG
VALPARAISO     CLOUDY    74  71  91 S14G21    29.81F
MICHIGAN CITY* CLOUDY    73  70  88 S13G22    29.79F
LAPORTE*       CLOUDY    73  73 100 S9        29.81F FOG
KNOX*          CLOUDY    73  69  87 S9G17     29.82F
SOUTH BEND     CLOUDY    75  70  84 S14       29.82F
ELKHART*       CLOUDY    73  72  94 SW8       29.84F FOG
GOSHEN         CLOUDY    77  71  82 S15       29.85F
MONTICELLO*    CLOUDY    74  71  92 S13       29.85F
LOGANSPORT*    CLOUDY    73  70  88 S15G21    29.88F
ROCHESTER*     PTSUNNY   77  72  83 S13       29.87F
WARSAW*        CLOUDY    73  72  94 S9        29.87F
ANGOLA*        CLOUDY    72  64  78 S8        29.89F
FORT WAYNE     CLOUDY    75  71  87 S13       29.91F
HUNTINGTON*    CLOUDY    74  72  91 SW9G17    29.90F
PERU/GRISSOM   CLOUDY    75  75 100 SW18      29.88F
MARION*        PTSUNNY   76  70  83 SW13G22   29.92F

$$
INZ028>050-011500-
CENTRAL INDIANA

CITY           SKY/WX    TMP DP  RH WIND       PRES   REMARKS
LAFAYETTE      CLOUDY    75  71  87 S10G20    29.85F
KOKOMO*        CLOUDY    75  70  83 SW18G24   29.90F
MUNCIE*        CLOUDY    76  71  85 SW10G17   29.94S
INDIANAPOLIS   CLOUDY    75  71  87 S15       29.92F

$$
MIZ043>046-050>051-056>058-064>065-071>073-077>080-011500-
SOUTHWEST LOWER MICHIGAN

CITY           SKY/WX    TMP DP  RH WIND       PRES   REMARKS
BATTLE CREEK   CLOUDY    73  70  90 S14       29.85F FOG
BENTON HARBOR  PTSUNNY   74  71  91 S10G18    29.78F FOG
COLDWATER*     CLOUDY    75  72  90 S6        29.88S
HILLSDALE*     CLOUDY    72  72 100 S5        29.90F FOG
HOLLAND        CLOUDY    75  71  87 S15       29.79F
GRAND RAPIDS   PTSUNNY   76  74  93 S15G23    29.81F
KALAMAZOO      CLOUDY    73  70  90 S16       29.84S FOG
STURGIS*         N/A     73  72  94 S10G17    29.85F FOG
THREE RIVERS*  CLOUDY    74  72  93 S8        29.85F FOG

$$
OHZ001>008-015>018-024>025-011500-
NORTHWEST OHIO

CITY           SKY/WX    TMP DP  RH WIND       PRES   REMARKS
WAUSEON*       CLOUDY    72  70  94 S13       29.91F FOG
DEFIANCE       CLOUDY    74  69  85 S9        29.91F HAZE
FINDLAY        CLOUDY    73  69  87 S14       29.95S
TOLEDO EXPRESS CLOUDY    72  69  90 S8        29.92S
TOLEDO METCALF CLOUDY    75  68  78 SW14G22   29.94R
LIMA           PTSUNNY   76  71  85 S12       29.96S

$$
&&


USA.gov is the U.S. government's official web portal to all federal, state and local government web resources and services.